Meteo Giornale » Osservazioni meteo Germania » Friedrichshafen

ore: 20:50 - Osservazioni Meteo Friedrichshafen
Lat. 47° 40' N Lon. 9° 31' E Alt. 416 metri s.l.m.

molto_nuvoloso Europe/Berlin

15 °C

Molto Nuvoloso

Temp. 24 Ore

14 °C

20 °C

Nord/Nord-Est

9.3 Km/h

Dew point 11 °C

Umidità 76 %

Visibilità  10 Km

Il sole sorge alle ore 07:00

Il sole tramonta alle ore 19:31

Data e Ora Cielo e Fenomeni T °C DP °C Um. % Pres. hPa Vis. km Vento km/h
Oggi h: 20:50 molto_nuvoloso Molto Nuvoloso 15 11 76 1016 10 N/NE 9.3
Oggi h: 20:20 sereno Sereno 15 11 76 1015 10 N/NE 9.3
Oggi h: 19:50 sereno Sereno 16 11 72 1015 10 N 9.3
Oggi h: 19:20 sereno Sereno 17 11 67 1015 10 N 3.7
Oggi h: 18:20 sereno Sereno 19 11 59 1015 10 N 5.5
Oggi h: 17:50 poco_nuvoloso Poco Nuvoloso 19 11 59 1015 10 N 3.7
Oggi h: 17:20 nuvoloso Nuvoloso 20 11 56 1015 10 N 7.4
Oggi h: 16:50 poco_nuvoloso Poco Nuvoloso 20 10 52 1015 10 N 5.5
Oggi h: 16:20 poco_nuvoloso Poco Nuvoloso 20 10 52 1015 10 N 5.5
Oggi h: 15:20 nuvoloso Nuvoloso 19 10 55 1016 10 N 5.5
Oggi h: 14:50 poco_nuvoloso Poco Nuvoloso 20 10 52 1016 10 N 5.5
Oggi h: 14:20 nuvoloso Nuvoloso 20 10 52 1016 10 N 5.5
Oggi h: 13:50 poco_nuvoloso Poco Nuvoloso 19 9 52 1016 10 N 5.5
Oggi h: 13:20 sereno Sereno 19 9 52 1017 10 N 5.5
Oggi h: 12:50 sereno Sereno 19 10 55 1017 10 NE 7.4
Oggi h: 12:20 poco_nuvoloso Poco Nuvoloso 19 10 55 1017 10 NE 9.3
Oggi h: 11:50 poco_nuvoloso Poco Nuvoloso 18 10 59 1017 10 N/NE 9.3
Oggi h: 11:20 sereno Sereno 17 10 63 1017 10 E/NE 9.3
Oggi h: 10:50 sereno Sereno 17 10 63 1017 10 NE 14.8
Oggi h: 10:20 poco_nuvoloso Poco Nuvoloso 16 11 72 1017 10 NE 13
Oggi h: 09:50 coperto Coperto 15 12 82 1017 10 N/NE 11.1
Oggi h: 09:20 coperto Coperto 14 12 87 1017 10 N/NE 13
Oggi h: 08:50 molto_nuvoloso Molto Nuvoloso 14 12 87 1017 10 NE 9.3
Oggi h: 08:20 coperto Coperto 14 12 87 1017 10 NE 9.3
Oggi h: 07:50 coperto Coperto 14 12 87 1017 10 NE 7.4
Oggi h: 07:20 coperto Coperto 14 12 87 1017 10 N 5.5
Oggi h: 06:50 coperto Coperto 14 12 87 1017 10 N 5.5
Oggi h: 06:20 coperto Coperto 14 12 87 1017 10 N 5.5
Oggi h: 05:50 coperto Coperto 14 12 87 1017 10 N 1.8
Oggi h: 05:20 coperto Coperto 14 12 87 1017 10 N 1.8
Oggi h: 04:50 coperto Coperto 14 12 87 1017 10 N 5.5
Oggi h: 04:20 coperto Coperto 14 13 93 1018 10 N 1.8
Oggi h: 03:50 coperto Coperto 14 13 93 1018 10 N 3.7
Oggi h: 03:20 coperto Coperto 15 13 87 1018 10 N 3.7
Oggi h: 02:50 coperto Coperto 15 13 87 1018 10 N 1.8
Oggi h: 02:20 coperto Coperto 15 12 82 1018 10 N 1.8
Oggi h: 01:50 coperto Coperto 15 12 82 1018 10 N 1.8
Oggi h: 01:20 coperto Coperto 15 12 82 1018 10 N 3.7
Oggi h: 00:50 coperto Coperto 15 13 87 1018 10 N 3.7
Oggi h: 00:20 coperto Coperto 15 13 87 1018 10 N 5.5
Ieri h: 23:50 coperto Coperto 16 13 82 1018 10 N 5.5
Ieri h: 23:20 coperto Coperto 16 13 82 1018 10 N 5.5
Ieri h: 22:50 coperto Coperto 16 13 82 1018 10 NE 7.4
Ieri h: 22:20 molto_nuvoloso Molto Nuvoloso 16 13 82 1018 10 NE 7.4
Ieri h: 21:50 coperto Coperto 16 14 87 1018 10 NE 7.4